This is the latest recevied weather packets stored in our database for station/object KD4MBW. If no packets are shown the sender has not sent any weather packets the latest 1 day(s).
| Time | Temp. | Humidity | Pressure | Rain* | Wind** | Luminosity | Snow |
|---|---|---|---|---|---|---|---|
| 1778029836 | 21.11° C | 94% | 1015.3 hPa | 0 mm | 1.79 m/s, 219° | 0 W/m² | - |
| 1778029531 | 21.11° C | 94% | 1015.2 hPa | 0 mm | 1.34 m/s, 240° | 0 W/m² | - |
| 1778029227 | 21.67° C | 93% | 1015.2 hPa | 0 mm | 1.34 m/s, 227° | 0 W/m² | - |
| 1778028924 | 21.67° C | 93% | 1015.2 hPa | 0 mm | 1.79 m/s, 204° | 0 W/m² | - |
| 1778028620 | 21.67° C | 92% | 1014.9 hPa | 0 mm | 1.79 m/s, 204° | 0 W/m² | - |
| 1778028318 | 21.67° C | 92% | 1015.1 hPa | 0 mm | 1.79 m/s, 203° | 0 W/m² | - |
| 1778028014 | 21.67° C | 91% | 1015 hPa | 0 mm | 1.34 m/s, 221° | 0 W/m² | - |
| 1778027710 | 21.67° C | 90% | 1015 hPa | 0 mm | 1.79 m/s, 203° | 0 W/m² | - |
| 1778027406 | 22.22° C | 90% | 1015.1 hPa | 0 mm | 1.79 m/s, 228° | 1 W/m² | - |
| 1778027103 | 22.22° C | 89% | 1014.9 hPa | 0 mm | 1.79 m/s, 195° | 2 W/m² | - |
| 1778026798 | 22.22° C | 88% | 1014.6 hPa | 0 mm | 1.79 m/s, 195° | 3 W/m² | - |
| 1778026495 | 22.22° C | 86% | 1014.8 hPa | 0 mm | 3.13 m/s, 214° | 6 W/m² | - |
| 1778026193 | 22.78° C | 85% | 1014.8 hPa | 0 mm | 2.24 m/s, 131° | 8 W/m² | - |
| 1778025890 | 22.78° C | 83% | 1014.8 hPa | 0 mm | 2.24 m/s, 216° | 11 W/m² | - |
| 1778025586 | 22.78° C | 80% | 1014.9 hPa | 0 mm | 3.58 m/s, 204° | 18 W/m² | - |
| 1778025285 | 23.33° C | 78% | 1014.8 hPa | 0 mm | 1.79 m/s, 197° | 28 W/m² | - |
| 1778024981 | 23.33° C | 75% | 1015.1 hPa | 0 mm | 3.58 m/s, 203° | 38 W/m² | - |
| 1778024679 | 23.89° C | 73% | 1015 hPa | 0 mm | 1.79 m/s, 204° | 47 W/m² | - |
| 1778024375 | 23.89° C | 71% | 1015 hPa | 0 mm | 3.58 m/s, 208° | 48 W/m² | - |
| 1778024073 | 23.89° C | 71% | 1015.1 hPa | 0 mm | 2.68 m/s, 234° | 40 W/m² | - |
| 1778023770 | 23.89° C | 69% | 1014.9 hPa | 0 mm | 2.68 m/s, 202° | 44 W/m² | - |
| 1778023468 | 24.44° C | 68% | 1014.8 hPa | 0 mm | 2.24 m/s, 210° | 57 W/m² | - |
| 1778023165 | 24.44° C | 67% | 1014.7 hPa | 0 mm | 2.24 m/s, 223° | 75 W/m² | - |
| 1778022862 | 24.44° C | 69% | 1014.8 hPa | 0 mm | 3.13 m/s, 208° | 81 W/m² | - |
| 1778022560 | 24.44° C | 68% | 1014.9 hPa | 0 mm | 4.47 m/s, 215° | 85 W/m² | - |
* Rain latest hour (hover to see other rain measurements)
** Current wind speed in m/s (hover to see current wind gust speed)